[[{"header":{"parameterUnit":"m.s-1","parameterCategory":1,"la1":30.2991,"la2":30.254,"lo1":-89.0895,"lo2":-89.0444,"dy":0.0017,"dx":0.0017,"nx":28,"ny":28,"refTime":"2024-06-28T03:00:00:Z","depth":0,"parameterNumber":2,"parameterNumberName":"U-component_of_WINDS"},"data":[0,0,0,0,0,0,0,0,0,0,0,0,0,0,0,0,0,0,0,0,0,0,0,0,0,0,0,0,0,0,0,0,0,0,0,0,0,0,0,0,0,0,0,0,0,0,0,0,0,0,0,0,0,0,0,0,0,0,2.8355,2.8356,0,2.8417,2.8418,2.8419,2.8402,2.84,2.8399,2.8398,2.846,2.8463,2.8466,0,0,0,0,0,0,0,0,0,0,0,0,0,2.8217,2.8219,2.8355,2.8356,2.8357,2.8417,2.8418,2.8419,2.8402,2.84,2.8399,2.8397,2.8459,2.8463,2.8466,0,0,0,0,0,0,0,0,0,0,0,0,0,2.8278,2.822,2.8355,2.8355,2.8356,2.8417,2.8418,2.8419,2.8402,2.84,2.8398,2.8397,2.8458,2.8462,2.8466,2.853,0,0,2.8479,2.8481,0,0,0,0,0,0,0,0,2.8274,2.8283,2.8355,2.8355,2.8356,2.84,2.8392,2.8456,2.8403,2.8385,2.8398,2.8396,2.8442,2.8447,2.8463,2.8533,2.8536,2.848,2.8482,2.8484,2.8485,0,0,0,0,0,0,0,2.827,2.828,2.838,2.8356,2.8357,2.8351,2.8358,2.8404,2.8423,2.8386,2.8385,2.8393,2.8442,2.8459,2.8464,2.8537,2.848,2.8483,2.8486,2.8488,2.8658,2.866,0,0,0,0,0,0,2.8266,2.8277,2.8378,2.8381,2.831,2.8355,2.8362,2.8388,2.8422,2.8426,2.8394,2.8392,2.8452,2.8459,2.8466,2.854,2.8484,2.8488,2.849,2.8656,2.8658,2.8661,0,0,0,0,0,0,2.8263,2.8275,2.8375,2.8329,2.8341,2.836,2.8388,2.839,2.8407,2.8428,2.8431,2.8409,2.8451,2.846,2.8514,2.8542,2.849,2.8494,2.8654,2.8657,2.8659,2.869,0,0,0,0,0,0,2.8259,2.8274,2.83,2.833,2.8344,2.8423,2.839,2.8393,2.8415,2.8412,2.8443,2.8446,2.845,2.8507,2.8518,2.8547,2.8497,2.8651,2.8655,2.8658,2.8686,2.8693,2.8699,0,0,0,0,0,2.8254,2.8306,2.8301,2.8313,2.8376,2.8424,2.8432,2.8437,2.8417,2.8442,2.8455,2.8445,2.8538,2.8513,2.8525,2.8555,2.8649,2.8654,2.8658,2.8683,2.8692,2.8699,0,0,0,0,0,0,2.8279,2.831,2.8305,2.8368,2.8394,2.8421,2.8453,2.8447,2.8478,2.8474,2.8478,2.8485,2.8539,2.8553,2.8525,2.8617,2.859,2.8597,2.8605,2.8614,2.862,2.8615,2.8501,0,0,0,0,0,2.8292,2.833,2.8354,2.8408,2.8421,2.8435,2.8456,2.8457,2.8484,2.8494,2.8511,2.8537,2.8571,2.8593,2.8627,2.8689,2.8693,2.8715,2.8722,2.8727,2.8732,2.8762,2.8771,2.8675,2.8675,2.8675,0,0,2.8319,2.8341,2.8364,2.8414,2.8433,2.847,2.8444,2.8485,2.8512,2.85,2.8551,2.8564,2.8592,2.8649,2.8675,2.8662,2.876,2.8733,2.8737,2.8739,2.8768,2.8777,2.8785,2.8678,2.8678,2.8677,0,0,2.8387,2.8408,2.8453,2.8473,2.8503,2.8512,2.8523,2.8551,2.8559,2.861,2.8601,2.8632,2.8693,2.8712,2.8729,2.8801,2.8792,2.8812,2.8845,2.8875,2.8882,2.8889,2.8911,2.8919,2.8817,2.8818,2.8818,0,2.8416,2.8472,2.8477,2.8518,2.8538,2.853,2.8573,2.8593,2.8632,2.8645,2.8631,2.8704,2.8723,2.8782,2.8799,2.8815,2.8825,2.8807,2.8881,2.8888,2.8894,2.8915,2.8924,2.882,2.8819,2.8819,2.8819,0,2.8505,2.8544,2.8577,2.8614,2.8638,2.8681,2.869,2.8714,2.8713,2.8722,2.8772,2.8794,2.8829,2.8844,2.8844,2.8902,2.8893,2.888,2.8853,2.8905,2.8925,2.8933,2.8822,2.8822,2.8821,2.8821,0,0,2.859,2.8628,2.864,2.8655,2.8686,2.8716,2.8757,2.8791,2.881,2.8837,2.8869,2.8919,2.8906,2.8926,2.8928,2.8954,2.9004,2.8937,2.8938,2.8946,2.9066,2.9074,2.9084,2.8999,2.9001,2.9002,2.9063,0,2.8658,2.873,2.8734,2.8799,2.8832,2.8823,2.8858,2.888,2.889,2.8919,2.8929,2.8963,2.8945,2.8956,2.8982,2.8993,2.9028,2.8989,2.9027,2.9028,2.9017,2.9095,2.9103,2.916,2.9071,2.9072,2.9073,0,2.8747,2.8775,2.8843,2.8866,2.888,2.8912,2.8942,2.8971,2.8995,2.8999,2.902,2.9017,2.9057,2.903,2.9082,2.9056,2.9071,2.9079,2.9081,2.9083,2.9052,2.9095,2.9178,2.9185,2.9086,2.9085,2.9084,0,2.8797,2.8853,2.8899,2.8913,2.8943,2.8964,2.8978,2.9,2.9019,2.9045,2.9057,2.9088,2.9105,2.9128,2.9132,2.9113,2.9184,2.9158,2.9186,2.9186,2.92,2.9198,2.9283,2.9215,2.9215,2.9215,2.9214,0,2.8871,2.8912,2.8922,2.8951,2.8995,2.8999,2.9042,2.9054,2.9073,2.9102,2.9097,2.9124,2.913,2.9157,2.9161,2.9202,2.921,2.9213,2.9213,2.9212,2.9211,2.9221,2.9216,2.9217,2.9216,2.9216,2.9215,0,2.8934,2.8944,2.8993,2.9016,2.9023,2.9054,2.9073,2.91,2.9108,2.9144,2.9153,2.9165,2.9197,2.9205,2.9243,2.9246,2.9293,2.9291,2.9285,2.9284,2.931,2.9306,2.9402,2.9413,2.934,2.9341,2.9341,0,2.8979,2.901,2.9036,2.9055,2.9069,2.91,2.9119,2.9124,2.9144,2.9171,2.9193,2.9225,2.925,2.9301,2.9313,2.9341,2.9338,2.9369,2.9342,2.9339,2.9334,2.9331,2.9333,2.9374,2.9374,2.9375,2.9376,0,2.9057,2.9059,2.9087,2.9116,2.9139,2.9163,2.9185,2.92,2.9207,2.923,2.9262,2.9282,2.932,2.935,2.9378,2.939,2.9383,2.9384,2.9392,2.939,2.9383,2.9384,2.9296,2.9382,2.9381,2.9381,2.938,2.938,2.911,2.9136,2.9157,2.9188,2.9204,2.9225,2.9249,2.926,2.9287,2.9318,2.9319,2.9353,2.9373,2.941,2.9424,2.945,2.944,2.9452,2.9454,2.9456,2.9457,2.9381,2.9455,2.9455,2.9455,2.9455,2.9455,0,2.9184,2.9197,2.9225,2.9255,2.9279,2.9271,2.9294,2.9314,2.9344,2.9364,2.9388,2.9424,2.9452,2.9466,2.9493,2.9511,2.9509,2.9518,2.9516,2.9518,2.9466,2.9455,2.952,2.952,2.952,2.952,2.952,2.952,2.9225,2.9267,2.9271,2.932,2.9333,2.9366,2.938,2.9397,2.9412,2.9452,2.9476,2.9484,2.9501,2.9529,2.9554,2.9557,2.9566,2.9577,2.9578,2.9529,2.9522,2.9515,2.9505,2.9579,2.9579,2.9627,2.9628,2.9628]},{"header":{"parameterUnit":"m.s-1","parameterCategory":1,"la1":30.2991,"la2":30.254,"lo1":-89.0895,"lo2":-89.0444,"dy":0.0017,"dx":0.0017,"nx":28,"ny":28,"refTime":"2024-06-28T03:00:00:Z","depth":0,"parameterNumber":3,"parameterNumberName":"V-component_of_WINDS"},"data":[0,0,0,0,0,0,0,0,0,0,0,0,0,0,0,0,0,0,0,0,0,0,0,0,0,0,0,0,0,0,0,0,0,0,0,0,0,0,0,0,0,0,0,0,0,0,0,0,0,0,0,0,0,0,0,0,0,0,6.4289,6.4291,0,6.4465,6.4467,6.4469,6.4424,6.4421,6.4418,6.4414,6.4589,6.4597,6.4605,0,0,0,0,0,0,0,0,0,0,0,0,0,6.3907,6.3915,6.4289,6.4291,6.4293,6.4465,6.4467,6.4469,6.4425,6.4421,6.4417,6.4413,6.4587,6.4596,6.4605,0,0,0,0,0,0,0,0,0,0,0,0,0,6.4077,6.3917,6.4288,6.4292,6.4294,6.4464,6.4467,6.447,6.4426,6.4421,6.4416,6.4411,6.4583,6.4595,6.4607,6.4782,0,0,6.4643,6.4648,0,0,0,0,0,0,0,0,6.4068,6.4091,6.4289,6.4292,6.4295,6.4418,6.4397,6.4575,6.4427,6.4376,6.4414,6.4408,6.4536,6.4551,6.4595,6.4791,6.4798,6.4644,6.4651,6.4656,6.4659,0,0,0,0,0,0,0,6.4056,6.4083,6.4358,6.4292,6.4295,6.4282,6.4301,6.443,6.4482,6.438,6.4377,6.4399,6.4536,6.4584,6.4599,6.4801,6.4643,6.4654,6.4661,6.4666,6.5145,6.5151,0,0,0,0,0,0,6.4043,6.4074,6.4353,6.4364,6.4166,6.4293,6.4314,6.4383,6.4481,6.4491,6.4403,6.4396,6.4567,6.4585,6.4605,6.4816,6.4656,6.4667,6.4673,6.514,6.5147,6.5153,0,0,0,0,0,0,6.4035,6.4068,6.4346,6.4218,6.4252,6.4306,6.4384,6.4389,6.4437,6.4498,6.4507,6.4443,6.4563,6.4588,6.4738,6.4821,6.4672,6.4683,6.5133,6.5142,6.515,6.5239,0,0,0,0,0,0,6.4024,6.4066,6.4135,6.422,6.4259,6.4478,6.4389,6.4397,6.4458,6.4451,6.4538,6.4547,6.4561,6.4721,6.475,6.4835,6.4692,6.5126,6.5137,6.5147,6.5229,6.525,6.5267,0,0,0,0,0,6.4011,6.4152,6.4139,6.4172,6.4347,6.4483,6.4506,6.452,6.4465,6.4534,6.4573,6.4545,6.4807,6.4737,6.4769,6.4858,6.5121,6.5134,6.5146,6.522,6.5246,6.5267,0,0,0,0,0,0,6.4074,6.4164,6.4149,6.4323,6.4396,6.4476,6.4563,6.4547,6.4635,6.4624,6.4637,6.4657,6.4809,6.4849,6.4768,6.5032,6.4956,6.4976,6.5001,6.5025,6.5044,6.5031,6.4702,0,0,0,0,0,6.4108,6.4213,6.4285,6.4431,6.4469,6.451,6.457,6.4574,6.465,6.468,6.4729,6.4802,6.49,6.4965,6.5059,6.5234,6.5251,6.5311,6.533,6.5346,6.5363,6.5455,6.5482,6.5195,6.5195,6.5195,0,0,6.418,6.4242,6.4307,6.4446,6.4503,6.4609,6.4536,6.4652,6.473,6.4697,6.4841,6.488,6.4961,6.5124,6.5198,6.5162,6.5446,6.5362,6.5374,6.5383,6.5471,6.5499,6.5523,6.5204,6.5202,6.5201,0,0,6.4365,6.4424,6.4551,6.461,6.4697,6.4723,6.4754,6.4836,6.4861,6.5006,6.4983,6.5074,6.5245,6.5303,6.5355,6.556,6.5536,6.559,6.569,6.578,6.5803,6.5823,6.5894,6.5919,6.5606,6.5607,6.5607,0,6.4443,6.4604,6.4618,6.4736,6.4796,6.4772,6.49,6.4955,6.5068,6.5109,6.5067,6.5279,6.5332,6.5507,6.5557,6.56,6.5633,6.558,6.5799,6.5819,6.5838,6.5906,6.5933,6.5612,6.5612,6.5611,6.5611,0,6.4694,6.4805,6.4897,6.5009,6.5079,6.5201,6.5232,6.5301,6.5299,6.5328,6.5475,6.5538,6.5644,6.5685,6.5685,6.586,6.5834,6.5795,6.5719,6.5871,6.5935,6.5961,6.5621,6.5619,6.5617,6.5616,0,0,6.4924,6.5041,6.5074,6.5124,6.5218,6.5303,6.5422,6.5527,6.5585,6.5664,6.5762,6.5906,6.587,6.5929,6.5934,6.6014,6.6169,6.5965,6.5967,6.5999,6.6364,6.6391,6.6422,6.6155,6.616,6.6164,6.6356,0,6.5116,6.5329,6.5344,6.5535,6.5637,6.5615,6.5718,6.5786,6.5816,6.5905,6.5937,6.6038,6.5984,6.6019,6.6097,6.6134,6.6242,6.6121,6.6244,6.6249,6.6224,6.6455,6.6486,6.6665,6.6381,6.6386,6.6389,0,6.5369,6.5456,6.5657,6.5735,6.5778,6.5872,6.5968,6.6054,6.6128,6.6144,6.621,6.6203,6.6323,6.6243,6.6406,6.6323,6.6374,6.64,6.6407,6.6418,6.6327,6.6471,6.6722,6.6748,6.6429,6.6425,6.6423,0,6.5514,6.5682,6.5824,6.5867,6.5961,6.6027,6.6069,6.6139,6.62,6.6283,6.6322,6.6418,6.647,6.6543,6.6561,6.6501,6.6724,6.6645,6.6738,6.6738,6.6786,6.6782,6.7047,6.6821,6.682,6.682,6.6819,0,6.5727,6.585,6.589,6.5977,6.6114,6.6129,6.6264,6.6301,6.6363,6.6455,6.6441,6.6527,6.6547,6.6636,6.6651,6.6783,6.6807,6.6821,6.6823,6.6822,6.682,6.6855,6.6843,6.6827,6.6825,6.6824,6.6823,0,6.5913,6.5945,6.6097,6.6174,6.6196,6.6294,6.6359,6.6441,6.6469,6.6585,6.6613,6.6656,6.676,6.6786,6.691,6.692,6.7075,6.7066,6.7051,6.705,6.7141,6.7131,6.7437,6.7476,6.7225,6.7228,6.723,0,6.6046,6.614,6.6228,6.6289,6.6334,6.6434,6.6496,6.6513,6.6578,6.667,6.674,6.6843,6.6926,6.7093,6.7134,6.7228,6.722,6.7321,6.7234,6.7229,6.722,6.7214,6.7222,6.7337,6.7339,6.7342,6.7343,0,6.6277,6.6288,6.638,6.6477,6.6552,6.6629,6.6702,6.6752,6.6779,6.6853,6.696,6.7025,6.7151,6.7252,6.7347,6.7387,6.7369,6.737,6.7396,6.7396,6.7382,6.7389,6.7094,6.7363,6.7361,6.736,6.7359,6.7358,6.644,6.6522,6.6596,6.6698,6.6755,6.6824,6.6904,6.6942,6.7032,6.7138,6.7142,6.7258,6.7327,6.7453,6.7498,6.7588,6.7557,6.7595,6.7605,6.7614,6.7621,6.7369,6.7605,6.7604,6.7604,6.7603,6.7603,0,6.6669,6.6716,6.6809,6.6913,6.6992,6.697,6.7049,6.7117,6.7219,6.7287,6.7369,6.749,6.7588,6.7637,6.7733,6.7795,6.7789,6.7819,6.7814,6.7823,6.7644,6.7611,6.7822,6.7822,6.7822,6.7822,6.7822,6.7822,6.6798,6.6936,6.6955,6.712,6.7165,6.7279,6.7326,6.7388,6.7442,6.7579,6.7661,6.7692,6.7751,6.7851,6.7939,6.795,6.7985,6.802,6.8027,6.7858,6.7836,6.7815,6.7784,6.8028,6.8028,6.8199,6.82,6.8202]}]]